TimeCDT,TemperatureF,Dew PointF,Humidity,Sea Level PressureIn,VisibilityMPH,Wind Direction,Wind SpeedMPH,Gust SpeedMPH,PrecipitationIn,Events,Conditions,WindDirDegrees,DateUTC
12:15 AM,79.9,67.1,65,29.95,7.0,ESE,3.5,-,N/A,,Clear,110,2013-09-19 05:15:00
12:35 AM,80.1,66.9,64,29.95,10.0,ESE,3.5,-,N/A,,Clear,120,2013-09-19 05:35:00
12:55 AM,80.1,66.2,62,29.95,10.0,SE,3.5,-,N/A,,Clear,140,2013-09-19 05:55:00
1:15 AM,79.7,65.3,61,29.95,10.0,SE,3.5,-,N/A,,Clear,140,2013-09-19 06:15:00
1:35 AM,79.2,64.6,61,29.95,7.0,SE,3.5,-,N/A,,Clear,140,2013-09-19 06:35:00
1:55 AM,78.8,64.4,61,29.96,10.0,SE,3.5,-,N/A,,Clear,140,2013-09-19 06:55:00
2:15 AM,78.3,64.4,62,29.96,10.0,SE,3.5,-,N/A,,Clear,140,2013-09-19 07:15:00
2:35 AM,78.1,64.4,63,29.96,10.0,SE,4.6,-,N/A,,Clear,140,2013-09-19 07:35:00
2:55 AM,77.4,64.4,64,29.96,10.0,SE,4.6,-,N/A,,Clear,140,2013-09-19 07:55:00
3:15 AM,77.4,64.4,64,29.95,10.0,SE,3.5,-,N/A,,Clear,130,2013-09-19 08:15:00
3:35 AM,77.0,64.6,65,29.95,10.0,SE,3.5,-,N/A,,Clear,130,2013-09-19 08:35:00
3:55 AM,76.6,64.6,66,29.95,7.0,SE,4.6,-,N/A,,Clear,140,2013-09-19 08:55:00
4:15 AM,76.5,64.8,67,29.95,10.0,SE,3.5,-,N/A,,Clear,140,2013-09-19 09:15:00
4:35 AM,76.3,64.8,67,29.95,10.0,SE,4.6,-,N/A,,Clear,140,2013-09-19 09:35:00
4:55 AM,76.5,64.8,67,29.96,10.0,SE,4.6,-,N/A,,Clear,140,2013-09-19 09:55:00
5:15 AM,76.1,64.9,68,29.96,10.0,SE,4.6,-,N/A,,Clear,140,2013-09-19 10:15:00
5:35 AM,76.1,65.3,69,29.97,10.0,Calm,Calm,-,N/A,,Clear,0,2013-09-19 10:35:00
5:55 AM,75.2,65.3,71,29.97,5.0,SE,3.5,-,N/A,,Clear,130,2013-09-19 10:55:00
6:15 AM,75.2,65.3,71,29.98,5.0,SE,3.5,-,N/A,,Clear,130,2013-09-19 11:15:00
6:35 AM,74.7,65.5,73,29.98,5.0,ESE,3.5,-,N/A,,Clear,110,2013-09-19 11:35:00
6:55 AM,74.3,65.5,74,29.99,5.0,ESE,3.5,-,N/A,,Clear,120,2013-09-19 11:55:00
7:15 AM,74.3,65.8,75,30.00,4.0,Calm,Calm,-,N/A,,Clear,0,2013-09-19 12:15:00
7:35 AM,74.3,66.2,76,30.00,4.0,Calm,Calm,-,N/A,,Clear,0,2013-09-19 12:35:00
7:55 AM,75.7,66.7,74,30.01,7.0,Calm,Calm,-,N/A,,Clear,0,2013-09-19 12:55:00
8:15 AM,77.0,67.1,71,30.01,4.0,Calm,Calm,-,N/A,,Scattered Clouds,0,2013-09-19 13:15:00
8:35 AM,78.4,67.6,69,30.02,5.0,ESE,4.6,-,N/A,,Scattered Clouds,120,2013-09-19 13:35:00
8:55 AM,80.6,68.4,66,30.02,7.0,SSE,4.6,-,N/A,,Clear,160,2013-09-19 13:55:00
9:15 AM,81.9,68.9,65,30.02,7.0,SSE,6.9,-,N/A,,Clear,150,2013-09-19 14:15:00
9:35 AM,82.4,68.9,64,30.02,7.0,SSE,4.6,-,N/A,,Scattered Clouds,150,2013-09-19 14:35:00
9:55 AM,84.9,69.8,60,30.03,5.0,SSE,8.1,-,N/A,,Mostly Cloudy,160,2013-09-19 14:55:00
10:15 AM,84.9,69.4,60,30.03,4.0,South,4.6,-,N/A,,Scattered Clouds,190,2013-09-19 15:15:00
10:35 AM,87.1,68.7,54,30.03,7.0,South,6.9,-,N/A,,Scattered Clouds,170,2013-09-19 15:35:00
10:55 AM,88.2,68.5,52,30.02,10.0,South,5.8,-,N/A,,Scattered Clouds,180,2013-09-19 15:55:00
11:15 AM,88.9,67.5,49,30.02,7.0,SE,9.2,-,N/A,,Scattered Clouds,130,2013-09-19 16:15:00
11:35 AM,87.8,67.3,50,30.02,7.0,SE,4.6,-,N/A,,Clear,130,2013-09-19 16:35:00
11:55 AM,88.3,67.1,49,30.01,10.0,SSE,8.1,-,N/A,,Scattered Clouds,160,2013-09-19 16:55:00
12:15 PM,89.2,66.0,46,30.01,10.0,South,5.8,-,N/A,,Scattered Clouds,170,2013-09-19 17:15:00
12:35 PM,90.7,65.7,43,30.00,5.0,South,6.9,-,N/A,,Scattered Clouds,180,2013-09-19 17:35:00
12:55 PM,90.7,64.4,42,30.00,7.0,SSE,4.6,-,N/A,,Scattered Clouds,160,2013-09-19 17:55:00
1:15 PM,91.6,63.9,40,29.98,7.0,SSE,11.5,-,N/A,,Scattered Clouds,160,2013-09-19 18:15:00
1:35 PM,91.6,63.3,39,29.98,4.0,South,4.6,-,N/A,,Clear,170,2013-09-19 18:35:00
1:55 PM,92.8,62.6,36,29.96,7.0,ESE,5.8,-,N/A,,Scattered Clouds,110,2013-09-19 18:55:00
2:15 PM,93.2,61.2,34,29.95,10.0,SSE,5.8,-,N/A,,Scattered Clouds,160,2013-09-19 19:15:00
2:35 PM,94.6,61.5,33,29.93,10.0,SSE,9.2,-,N/A,,Clear,160,2013-09-19 19:35:00
2:55 PM,92.8,61.5,35,29.93,10.0,SE,9.2,-,N/A,,Clear,130,2013-09-19 19:55:00
3:15 PM,93.7,62.1,35,29.91,10.0,ESE,8.1,-,N/A,,Clear,110,2013-09-19 20:15:00
3:35 PM,94.1,61.3,34,29.90,7.0,SSE,6.9,-,N/A,,Scattered Clouds,160,2013-09-19 20:35:00
3:55 PM,95.0,60.6,32,29.89,7.0,SE,8.1,-,N/A,,Scattered Clouds,140,2013-09-19 20:55:00
4:15 PM,93.7,60.8,33,29.89,7.0,ESE,6.9,-,N/A,,Clear,120,2013-09-19 21:15:00
4:35 PM,94.1,60.8,33,29.88,10.0,ENE,3.5,-,N/A,,Clear,70,2013-09-19 21:35:00
4:55 PM,92.3,61.5,36,29.88,7.0,East,5.8,-,N/A,,Scattered Clouds,80,2013-09-19 21:55:00
5:15 PM,93.6,61.5,34,29.88,7.0,ENE,5.8,-,N/A,,Scattered Clouds,60,2013-09-19 22:15:00
5:35 PM,92.3,61.3,35,29.88,10.0,NE,4.6,-,N/A,,Clear,50,2013-09-19 22:35:00
5:55 PM,91.8,61.7,37,29.87,7.0,Calm,Calm,-,N/A,,Clear,0,2013-09-19 22:55:00
6:15 PM,91.9,61.3,36,29.88,7.0,ENE,3.5,-,N/A,,Scattered Clouds,60,2013-09-19 23:15:00
6:35 PM,91.4,62.1,37,29.88,4.0,Calm,Calm,-,N/A,,Clear,0,2013-09-19 23:35:00
6:55 PM,90.5,62.6,39,29.88,7.0,Calm,Calm,-,N/A,,Clear,0,2013-09-19 23:55:00
7:15 PM,89.6,62.6,40,29.88,10.0,Calm,Calm,-,N/A,,Clear,0,2013-09-20 00:15:00
7:35 PM,89.2,62.6,41,29.88,10.0,Calm,Calm,-,N/A,,Clear,0,2013-09-20 00:35:00
7:55 PM,84.9,66.4,54,29.92,7.0,SW,15.0,21.9,N/A,,Mostly Cloudy,220,2013-09-20 00:55:00
8:15 PM,76.8,71.1,82,29.95,5.0,SW,3.5,-,0.01,,Overcast,230,2013-09-20 01:15:00
8:35 PM,75.9,72.9,90,29.94,5.0,Calm,Calm,-,0.03,,Scattered Clouds,0,2013-09-20 01:35:00
8:55 PM,75.6,73.0,92,29.94,5.0,Calm,Calm,-,0.04,,Clear,0,2013-09-20 01:55:00
9:15 PM,75.4,73.0,92,29.94,5.0,Calm,Calm,-,0.01,,Clear,0,2013-09-20 02:15:00
9:35 PM,75.2,73.2,94,29.95,10.0,Calm,Calm,-,0.01,,Clear,0,2013-09-20 02:35:00
9:55 PM,75.4,73.4,94,29.93,7.0,NNW,4.6,-,0.01,,Clear,330,2013-09-20 02:55:00
10:15 PM,75.2,72.9,92,29.92,7.0,NNW,4.6,-,N/A,,Clear,330,2013-09-20 03:15:00
10:35 PM,75.4,72.9,92,29.96,7.0,WSW,8.1,-,0.03,,Scattered Clouds,240,2013-09-20 03:35:00
10:55 PM,74.7,72.5,93,29.96,3.0,West,3.5,-,0.14,,Overcast,280,2013-09-20 03:55:00
11:15 PM,74.3,72.1,93,29.95,4.0,NW,5.8,-,0.03,,Mostly Cloudy,320,2013-09-20 04:15:00
11:35 PM,74.3,72.5,94,29.94,3.0,NNW,6.9,-,0.06,,Overcast,330,2013-09-20 04:35:00
11:55 PM,74.3,72.5,94,29.96,7.0,Calm,Calm,-,0.06,,Overcast,0,2013-09-20 04:55:00